Location: Chrząstowo
(52.0654°N, 17.1290°E)
Time: 17:02:01
(UTC+01:00)

Envisat - Pass Details

Date: 11 December 2019
Orbit: 764 x 766 km, 98.1° (Epoch: 28 January)

Event Time Altitude Azimuth Distance (km) Brightness Sun altitude
Rises 18:00:00 0° 177° (S) 3,222 6.3 -20.2°
Reaches altitude 10° 18:02:21 10° 182° (S) 2,300 5.6 -20.6°
Maximum altitude 18:07:19 55° 260° (W) 919 3.7 -21.4°
Drops below altitude 10° 18:12:20 10° 338° (NNW) 2,318 5.6 -22.1°
Sets 18:14:43 0° 343° (NNW) 3,249 6.3 -22.5°
